Location: Équennes
(49.7375°N, 1.9622°E)
Time: 11:14:13
(UTC+00:00)

NOSS 3-3 (A) - Visible Passes

Search period start: 28 September 2023 00:00
Search period end: 08 October 2023 00:00
Orbit: 755 x 1457 km, 63.4° (Epoch: 08 September)

Date Brightness Start Highest point End Pass type
(mag) Time Alt. Az. Time Alt. Az. Time Alt. Az.
30 Sep 7.1 05:00:48 10° ESE 05:01:36 10° ESE 05:02:26 10° E visible
02 Oct 6.3 05:17:22 10° SSE 05:21:44 25° ESE 05:26:35 10° ENE visible
03 Oct 6.5 04:34:26 10° SE 04:37:25 15° ESE 04:40:35 10° ENE visible
05 Oct 5.6 04:52:51 10° S 04:57:40 32° ESE 05:03:08 10° NE visible
06 Oct 6.2 04:09:20 10° SSE 04:13:16 20° ESE 04:17:33 10° ENE visible
07 Oct 6.5 03:27:07 10° ESE 03:28:59 12° ESE 03:30:55 10° E visible
07 Oct 4.3 05:12:51 10° SSW 05:18:18 66° SE 05:24:42 10° NE visible
